Погода в Радушном

Украина / Днепропетровская область     47°49′27″N   33°29′35″E
темп.,
°C
ветер,
м/с
пор.,
м/с
влажн.,
%
обл.,
%
осадки,
мм/ч
давл.,
гПа
погр.,
м
20 сентября, пн
пн2000:00+15сз697485 0.1 1009435
03:00+12зсз596680 0.1 1010428
06:00+11зсз5964100 0.0 1011571
09:00+11з6964100 0.0 1012749
12:00+15з710456 0.0 10121356
15:00+16з894464 0.0 10121657
18:00+15зсз674785 0.0 10121569
21:00+13сз4760100 0.0 1014529
21 сентября, вт
вт2100:00+11зсз3573100 0.0 1015217
03:00+10зсз3578100 0.0 1015127
06:00+10з467893 0.0 1015313
09:00+11зсз576778 0.0 1015858
12:00+11зсз6762100 0.0 10161385
15:00+10зсз6760100 0.1 10161106
18:00+11зсз6852100 0.0 10161335
21:00+8зсз6871100 0.0 1017919
22 сентября, ср
ср2200:00+8зсз5774100 0.0 1017977
03:00+8зсз5775100 0.1 10171070
06:00+7зсз5778100 0.1 1016924
09:00+8зсз5677100 0.1 1016921
12:00+9зсз5671100 0.1 10161208
15:00+11зсз4660100 0.1 10161400
18:00+9зсз4567100 0.1 1016750
21:00+9зсз2467100 0.1 1016351
23 сентября, чт
чт2300:00+8сз2369100 0.0 1015213
03:00+8з2372100 0.0 1015378
06:00+8сз2371100 0.1 1014501
09:00+8сз226799 0.1 1015843
12:00+10сз3264100 0.2 10141137
15:00+10зсз345789 0.3 10141084
18:00+9сз4558100 0.0 1014816
21:00+9ссз4567100 0.1 1015519
24 сентября, пт
пт2400:00+8сз3571100 0.1 1015389
03:00+8зсз2474100 0.1 1015224
06:00+6з33845 0.0 101548
09:00+9зюз466421 0.0 1014436
12:00+14юз7843100 0.0 10131228
15:00+16юз81043100 0.0 10111343
18:00+14юз81358100 0.2 10111263
21:00+13зюз71571100 0.6 1011783